Regional Weather Roundup
Issued by NWS

Home | Current Version | Previous Version | Text Only | Print | Product List | Glossary Off
Versions: 1 2 3 4 5 6 7 8 9 10 11 12 13 14 15 16 17 18 19 20 21 22 23 24 25 26 27 28 29 30 31 32 33 34 35 36 37 38 39 40 41 42 43 44 45 46 47 48 49 50

000
ASUS45 KBOI 311210
RWRID
WEATHER ROUNDUP FOR IDAHO
NATIONAL WEATHER SERVICE BOISE ID
600 AM MDT SUN AUG 31 2014

NOTE: "FAIR" INDICATES FEW OR NO CLOUDS BELOW 12000 FEET
WITH NO SIGNIFICANT WEATHER AND/OR OBSTRUCTIONS TO VISIBILITY

IDZ012-014-311300-
SOUTHWEST IDAHO


CITY           SKY/WX    TMP DP  RH WIND       PRES   REMARKS
BOISE          CLEAR     51  47  86 CALM      30.00R
CALDWELL       CLEAR     46  37  71 NE6       30.01S
MOUNTAIN HOME  CLEAR     51  50  99 W9        30.00R
$$

IDZ016-017-311300-
SOUTHCENTRAL IDAHO


CITY           SKY/WX    TMP DP  RH WIND       PRES   REMARKS
BURLEY         CLEAR     53  46  77 W14G22    29.97R
JEROME         CLEAR     50  46  86 SW12      30.00R
TWIN FALLS     CLEAR     52  44  74 SW9       30.01R
$$

IDZ019>023-311300-
SOUTHEAST IDAHO


CITY           SKY/WX    TMP DP  RH WIND       PRES   REMARKS
IDAHO FALLS    CLOUDY    54  48  80 SW16      29.94R
POCATELLO      CLOUDY    53  49  86 W16       29.98R
REXBURG        LGT RAIN  50  46  86 N7        29.92R
$$

IDZ006-010-011-018-031-032-311300-
CENTRAL IDAHO MOUNTAINS


CITY           SKY/WX    TMP DP  RH WIND       PRES   REMARKS
MCCALL         PTCLDY    46  43  89 CALM      30.00S
HAILEY         CLEAR     46  41  81 NW3       29.98R
STANLEY          N/A     40  38  93 CALM      30.04R
SALMON         CLOUDY    52  48  87 CALM      29.96R
CHALLIS        CLOUDY    50  48  93 CALM      29.98R
$$

IDZ002-004-006-007-026-311300-
NORTHERN IDAHO


CITY           SKY/WX    TMP DP  RH WIND       PRES   REMARKS
LEWISTON       CLEAR     61  45  55 S8        29.93R
LOWELL           N/A     58  56  93 CALM      29.96R
COEUR D`ALENE  CLOUDY    57  50  77 SW3       29.90R
MULLAN PASS    FOG       43  43 100 VRB5      29.96S VSB 1
$$


USA.gov is the U.S. government's official web portal to all federal, state and local government web resources and services.